Location: Vihti�l�
(61.3833°N, 23.0667°E)
Time: 03:16:53
(UTC+00:00)

Cosmos 2151 - Pass Details

Date: 29 November 2020
Orbit: 582 x 600 km, 82.5° (Epoch: 19 January)

Event Time Altitude Azimuth Distance (km) Brightness Sun altitude
Exits shadow 04:02:15 29° 344° (NNW) 1,100 4.1 -20.4°
Drops below altitude 10° 04:04:41 10° 6° (N) 1,923 5.6 -20.2°
Sets 04:06:59 0° 14° (NNE) 2,831 6.5 -19.9°
